8,
Avoca, PA
on Wednesday, January 2, 2013

Wednesday
Previous Day Next Day
Daily Summary
 ActualAverageRecord
Temperature
Mean Temperature °F 26°F  
Max Temperature 28°F 34°F 58°F (1930)
Min Temperature 14°F 19°F -6°F (1968)
Degree Days
Heating Degree Days 44 39  
Month to date heating degree days 84 77  
Since 1 July heating degree days 2198 2455  
Cooling Degree Days 0 0  
Month to date cooling degree days 0 0  
Year to date cooling degree days 0 0  
Moisture
Dew Point 12°F   
Average Humidity 72    
Maximum Humidity 88    
Minimum Humidity 55    
Precipitation
Precipitation T in 0.07 in 0.85 in (1979)
Month to date precipitation 0.02 0.14  
Year to date precipitation 0.02 0.14  
Wind
Wind Speed 4 mph   
Max Wind Speed 14 mph   
Max Gust Speed 17 mph   
Visibility 10 miles   
Events     

Key: T is trace of precipitation, MM is missing value
Source: NWS Daily Summary
Time(EST)TemperatureDew PointHumidity Pressure Visibility Wind DirectionWind SpeedGust SpeedPrecipitationEvents Conditions
12:54 AM 18.0°F 10.9°F 74% 30.02 in 10.0 miles Calm Calm - N/A   Overcast
1:54 AM 18.0°F 10.0°F 71% 30.03 in 10.0 miles Calm Calm - N/A   Overcast
2:54 AM 18.0°F 10.9°F 74% 30.03 in 10.0 miles NE 3.5 mph - N/A   Overcast
3:54 AM 18.0°F 10.9°F 74% 30.02 in 10.0 miles Calm Calm - N/A   Overcast
4:54 AM 19.0°F 10.9°F 71% 30.02 in 10.0 miles Calm Calm - N/A   Overcast
5:54 AM 16.0°F 10.0°F 77% 30.01 in 9.0 miles Calm Calm - N/A   Partly Cloudy
6:54 AM 15.8°F 12.2°F 86% 29.98 in 10.0 miles Calm Calm - N/A   Overcast
7:54 AM 17.1°F 12.9°F 84% 30.04 in 7.0 miles Calm Calm - N/A   Overcast
8:54 AM 17.1°F 12.0°F 81% 30.06 in 8.0 miles SSW 3.5 mph - N/A   Overcast
9:54 AM 21.0°F 12.0°F 68% 30.08 in 9.0 miles WSW 8.1 mph - N/A   Overcast
10:54 AM 23.0°F 14.0°F 68% 30.07 in 10.0 miles SW 6.9 mph - N/A   Overcast
11:54 AM 23.0°F 14.0°F 68% 30.06 in 6.0 miles WNW 3.5 mph - 0.00 in   Haze
12:54 PM 25.0°F 14.0°F 63% 30.04 in 10.0 miles NW 5.8 mph - N/A   Mostly Cloudy
1:54 PM 27.0°F 12.0°F 53% 30.06 in 10.0 miles NW 12.7 mph - N/A   Clear
2:54 PM 27.0°F 12.0°F 53% 30.07 in 10.0 miles WNW 11.5 mph - N/A   Mostly Cloudy
3:54 PM 27.0°F 12.0°F 53% 30.08 in 10.0 miles NW 8.1 mph - N/A   Clear
4:54 PM 26.1°F 12.0°F 55% 30.09 in 10.0 miles NW 8.1 mph - N/A   Scattered Clouds
5:54 PM 25.0°F 12.0°F 58% 30.11 in 10.0 miles West 9.2 mph - N/A   Clear
6:54 PM 25.0°F 10.9°F 55% 30.12 in 10.0 miles West 5.8 mph - N/A   Clear
7:54 PM 24.1°F 12.0°F 60% 30.12 in 10.0 miles West 5.8 mph - N/A   Clear
8:54 PM 24.1°F 12.0°F 60% 30.13 in 10.0 miles Calm Calm - N/A   Overcast
9:54 PM 23.0°F 12.9°F 65% 30.15 in 10.0 miles Calm Calm - N/A   Overcast
10:54 PM 24.1°F 12.9°F 62% 30.17 in 10.0 miles West 3.5 mph - N/A   Overcast
11:54 PM 23.0°F 14.0°F 68% 30.19 in 10.0 miles WSW 4.6 mph - N/A   Overcast
Astronomy
Sunrise:07:28 AM (EST) Moon Rise:10:19 PM (EST)1/2
Sunset:04:45 PM (EST) Moon Set:10:06 AM (EST)1/2
Moon Phase
Jan. 02 Jan. 04 Jan. 11 Jan. 18 Jan. 26

Copyright © 2014 The Weather Underground, Inc.
8,